[[{"header":{"parameterUnit":"m.s-1","parameterCategory":1,"la1":30.2991,"la2":30.254,"lo1":-89.0895,"lo2":-89.0444,"dy":0.0017,"dx":0.0017,"nx":28,"ny":28,"refTime":"2024-05-11T03:00:00:Z","depth":0,"parameterNumber":2,"parameterNumberName":"U-component_of_WINDS"},"data":[0,0,0,0,0,0,0,0,0,0,0,0,0,0,0,0,0,0,0,0,0,0,0,0,0,0,0,0,0,0,0,0,0,0,0,0,0,0,0,0,0,0,0,0,0,0,0,0,0,0,0,0,0,0,0,0,0,0,-0.0393,-0.0392,0,-0.0317,-0.0316,-0.0315,-0.0233,-0.0232,-0.0231,-0.023,-0.0152,-0.0151,-0.015,0,0,0,0,0,0,0,0,0,0,0,0,0,-0.0467,-0.0466,-0.0393,-0.0392,-0.0391,-0.0317,-0.0316,-0.0315,-0.0233,-0.0232,-0.023,-0.0229,-0.0152,-0.0151,-0.015,0,0,0,0,0,0,0,0,0,0,0,0,0,-0.0417,-0.0466,-0.0393,-0.0342,-0.0336,-0.0317,-0.0316,-0.0315,-0.0234,-0.0232,-0.023,-0.0228,-0.0153,-0.0151,-0.015,-0.0176,0,0,-0.0145,-0.0145,0,0,0,0,0,0,0,0,-0.042,-0.0415,-0.035,-0.0345,-0.0339,-0.0283,-0.0313,-0.0268,-0.0234,-0.0273,-0.023,-0.0228,-0.0197,-0.0192,-0.0181,-0.0172,-0.0169,-0.0145,-0.0144,-0.0144,-0.0143,0,0,0,0,0,0,0,-0.0424,-0.0418,-0.0363,-0.0349,-0.0342,-0.0322,-0.0313,-0.0305,-0.0245,-0.0269,-0.0263,-0.0255,-0.0193,-0.0183,-0.0179,-0.0168,-0.0145,-0.0144,-0.0143,-0.0142,-0.0176,-0.0177,0,0,0,0,0,0,-0.0435,-0.0421,-0.0365,-0.0361,-0.0376,-0.0322,-0.0312,-0.0303,-0.0245,-0.0235,-0.0257,-0.0251,-0.0186,-0.0181,-0.0176,-0.0203,-0.0144,-0.0142,-0.0141,-0.0174,-0.0176,-0.0178,0,0,0,0,0,0,-0.0437,-0.0431,-0.0368,-0.0389,-0.038,-0.0323,-0.0313,-0.0302,-0.0291,-0.0236,-0.0225,-0.0257,-0.0185,-0.0178,-0.0176,-0.0199,-0.0141,-0.014,-0.0172,-0.0174,-0.0177,-0.0257,0,0,0,0,0,0,-0.044,-0.0432,-0.0442,-0.039,-0.0379,-0.0371,-0.0314,-0.0302,-0.0289,-0.0282,-0.0233,-0.0223,-0.0183,-0.0179,-0.0175,-0.0196,-0.0139,-0.0169,-0.0173,-0.0176,-0.0252,-0.0262,-0.0271,0,0,0,0,0,-0.0443,-0.0468,-0.0443,-0.0437,-0.039,-0.0372,-0.0366,-0.0319,-0.0291,-0.03,-0.0264,-0.0225,-0.0197,-0.0179,-0.0174,-0.0195,-0.0168,-0.0172,-0.0176,-0.0248,-0.026,-0.0271,0,0,0,0,0,0,-0.0524,-0.046,-0.0432,-0.0441,-0.0413,-0.0359,-0.0369,-0.0333,-0.0312,-0.0306,-0.0248,-0.0238,-0.0243,-0.0218,-0.02,-0.0217,-0.0177,-0.018,-0.0233,-0.0244,-0.0253,-0.026,-0.0138,0,0,0,0,0,-0.0543,-0.0535,-0.0479,-0.0492,-0.0479,-0.0427,-0.0417,-0.0383,-0.0352,-0.0339,-0.0303,-0.0274,-0.0259,-0.025,-0.0232,-0.0247,-0.0236,-0.0259,-0.0268,-0.0276,-0.028,-0.0286,-0.0296,-0.0191,-0.0191,-0.0191,0,0,-0.0583,-0.0546,-0.0545,-0.0508,-0.0482,-0.0474,-0.0417,-0.0412,-0.0405,-0.0338,-0.0335,-0.0308,-0.0271,-0.0278,-0.0279,-0.0258,-0.0306,-0.0281,-0.0288,-0.0287,-0.0291,-0.0301,-0.031,-0.0194,-0.0193,-0.0193,0,0,-0.0651,-0.0622,-0.063,-0.0605,-0.0567,-0.0531,-0.0533,-0.0484,-0.0463,-0.0459,-0.0408,-0.04,-0.0374,-0.035,-0.0335,-0.0392,-0.0355,-0.0388,-0.0437,-0.0443,-0.0452,-0.0459,-0.048,-0.0488,-0.0392,-0.0392,-0.0392,0,-0.0705,-0.0691,-0.0639,-0.0636,-0.0622,-0.056,-0.0568,-0.0546,-0.0504,-0.0495,-0.0471,-0.0437,-0.0408,-0.0409,-0.0423,-0.0412,-0.0412,-0.0394,-0.0455,-0.0461,-0.0467,-0.0487,-0.0495,-0.0396,-0.0396,-0.0395,-0.0395,0,-0.076,-0.0751,-0.0762,-0.0723,-0.0709,-0.0712,-0.066,-0.0652,-0.0618,-0.0586,-0.0581,-0.0544,-0.0518,-0.0515,-0.0482,-0.0511,-0.0499,-0.0465,-0.0424,-0.0482,-0.05,-0.0507,-0.0402,-0.0401,-0.0399,-0.0398,0,0,-0.0879,-0.081,-0.0815,-0.0797,-0.0749,-0.0741,-0.074,-0.0715,-0.0709,-0.0682,-0.068,-0.0659,-0.0628,-0.061,-0.0574,-0.0579,-0.0628,-0.0545,-0.0543,-0.0563,-0.0657,-0.0683,-0.0693,-0.0602,-0.0603,-0.0604,-0.066,0,-0.094,-0.0936,-0.0888,-0.0898,-0.0889,-0.0829,-0.0829,-0.0799,-0.0768,-0.0755,-0.072,-0.0707,-0.0666,-0.0655,-0.0658,-0.0621,-0.0646,-0.0616,-0.06,-0.06,-0.0613,-0.0702,-0.073,-0.0785,-0.0667,-0.0668,-0.0669,0,-0.1011,-0.0988,-0.0997,-0.0948,-0.0942,-0.0943,-0.0915,-0.0904,-0.0869,-0.0845,-0.0825,-0.0784,-0.0779,-0.0739,-0.0732,-0.0713,-0.0703,-0.0684,-0.0684,-0.0682,-0.0639,-0.0704,-0.0801,-0.0811,-0.0679,-0.0678,-0.0677,0,-0.1099,-0.1069,-0.1071,-0.1056,-0.0999,-0.1001,-0.0977,-0.094,-0.0928,-0.0903,-0.0894,-0.0869,-0.0856,-0.0837,-0.079,-0.0765,-0.0788,-0.0744,-0.0769,-0.0771,-0.0778,-0.0779,-0.0878,-0.077,-0.077,-0.077,-0.0769,0,-0.1173,-0.1181,-0.1109,-0.1111,-0.1117,-0.1061,-0.107,-0.104,-0.1007,-0.1001,-0.0947,-0.0942,-0.0879,-0.0867,-0.083,-0.083,-0.0824,-0.0805,-0.0795,-0.0811,-0.0814,-0.0805,-0.08,-0.0772,-0.0771,-0.0771,-0.077,0,-0.1273,-0.1225,-0.1223,-0.1169,-0.1155,-0.1163,-0.1116,-0.1115,-0.1079,-0.1072,-0.1067,-0.1012,-0.0995,-0.0945,-0.0915,-0.089,-0.0901,-0.0882,-0.0913,-0.0907,-0.0936,-0.0934,-0.1034,-0.1044,-0.0929,-0.093,-0.0931,0,-0.1324,-0.1329,-0.1275,-0.1267,-0.1246,-0.1234,-0.122,-0.1165,-0.1153,-0.1113,-0.1116,-0.1095,-0.1075,-0.105,-0.1007,-0.0983,-0.0964,-0.1,-0.096,-0.0976,-0.0966,-0.0967,-0.0967,-0.101,-0.1011,-0.1013,-0.1014,0,-0.1421,-0.1397,-0.138,-0.1354,-0.134,-0.1317,-0.1292,-0.1288,-0.1226,-0.1215,-0.1197,-0.1182,-0.1151,-0.113,-0.11,-0.1074,-0.1034,-0.1026,-0.1031,-0.1048,-0.1066,-0.1058,-0.0939,-0.1025,-0.1024,-0.1023,-0.1022,-0.1022,-0.1499,-0.15,-0.1462,-0.1445,-0.142,-0.1397,-0.1392,-0.1356,-0.134,-0.1311,-0.1279,-0.1264,-0.1227,-0.1182,-0.116,-0.1147,-0.1126,-0.1132,-0.1134,-0.1137,-0.1145,-0.1067,-0.1141,-0.1141,-0.114,-0.114,-0.114,0,-0.1593,-0.1566,-0.155,-0.1516,-0.1502,-0.1464,-0.1433,-0.1424,-0.1413,-0.1382,-0.1363,-0.1342,-0.1321,-0.1275,-0.125,-0.1249,-0.123,-0.1244,-0.1245,-0.124,-0.1165,-0.1164,-0.126,-0.126,-0.126,-0.126,-0.126,-0.126,-0.1641,-0.1642,-0.1613,-0.16,-0.1571,-0.1557,-0.1543,-0.1521,-0.1496,-0.1475,-0.1458,-0.1428,-0.1391,-0.1362,-0.1341,-0.1328,-0.1322,-0.1343,-0.1324,-0.1256,-0.1245,-0.1234,-0.1233,-0.1342,-0.1342,-0.14,-0.14,-0.1401]},{"header":{"parameterUnit":"m.s-1","parameterCategory":1,"la1":30.2991,"la2":30.254,"lo1":-89.0895,"lo2":-89.0444,"dy":0.0017,"dx":0.0017,"nx":28,"ny":28,"refTime":"2024-05-11T03:00:00:Z","depth":0,"parameterNumber":3,"parameterNumberName":"V-component_of_WINDS"},"data":[0,0,0,0,0,0,0,0,0,0,0,0,0,0,0,0,0,0,0,0,0,0,0,0,0,0,0,0,0,0,0,0,0,0,0,0,0,0,0,0,0,0,0,0,0,0,0,0,0,0,0,0,0,0,0,0,0,0,-4.6658,-4.6657,0,-4.6551,-4.655,-4.6549,-4.6466,-4.6466,-4.6465,-4.6464,-4.635,-4.6347,-4.6345,0,0,0,0,0,0,0,0,0,0,0,0,0,-4.6784,-4.6782,-4.6658,-4.6657,-4.6655,-4.6551,-4.655,-4.6548,-4.6467,-4.6466,-4.6465,-4.6464,-4.635,-4.6348,-4.6345,0,0,0,0,0,0,0,0,0,0,0,0,0,-4.6708,-4.6781,-4.6658,-4.6602,-4.6596,-4.6552,-4.655,-4.6548,-4.6467,-4.6466,-4.6464,-4.6463,-4.6351,-4.6348,-4.6344,-4.6345,0,0,-4.6334,-4.6332,0,0,0,0,0,0,0,0,-4.6713,-4.6704,-4.6612,-4.6606,-4.6599,-4.6521,-4.6552,-4.648,-4.6467,-4.6516,-4.6464,-4.6463,-4.6407,-4.6399,-4.6381,-4.634,-4.6335,-4.6333,-4.6331,-4.633,-4.6329,0,0,0,0,0,0,0,-4.6718,-4.6708,-4.6615,-4.661,-4.6603,-4.658,-4.6568,-4.6538,-4.6469,-4.6511,-4.6505,-4.6494,-4.6403,-4.6385,-4.6378,-4.6333,-4.6333,-4.633,-4.6328,-4.6327,-4.6283,-4.6284,0,0,0,0,0,0,-4.6733,-4.6713,-4.6619,-4.6612,-4.6654,-4.6579,-4.6565,-4.6547,-4.6469,-4.6456,-4.6495,-4.649,-4.6391,-4.6382,-4.6374,-4.6367,-4.633,-4.6326,-4.6324,-4.6282,-4.6283,-4.6284,0,0,0,0,0,0,-4.6736,-4.6725,-4.6623,-4.6661,-4.6646,-4.6578,-4.6558,-4.6546,-4.6527,-4.6457,-4.6443,-4.6489,-4.639,-4.6379,-4.6352,-4.6362,-4.6325,-4.6322,-4.6281,-4.6282,-4.6283,-4.6355,0,0,0,0,0,0,-4.674,-4.6727,-4.6729,-4.6662,-4.6644,-4.6606,-4.6559,-4.6544,-4.6522,-4.6515,-4.6448,-4.6435,-4.6388,-4.6358,-4.6349,-4.6356,-4.6319,-4.6279,-4.6281,-4.6283,-4.6351,-4.6359,-4.6365,0,0,0,0,0,-4.6745,-4.6753,-4.6729,-4.6718,-4.6645,-4.6607,-4.6597,-4.6544,-4.6523,-4.6522,-4.6477,-4.6438,-4.6363,-4.6356,-4.6345,-4.6351,-4.6279,-4.6281,-4.6283,-4.6348,-4.6357,-4.6365,0,0,0,0,0,0,-4.6821,-4.6743,-4.6716,-4.6703,-4.6662,-4.6593,-4.6591,-4.6556,-4.6519,-4.6514,-4.6448,-4.6434,-4.6413,-4.638,-4.6374,-4.6346,-4.6315,-4.6315,-4.6369,-4.6376,-4.6383,-4.6391,-4.6316,0,0,0,0,0,-4.6837,-4.6815,-4.6746,-4.6741,-4.6723,-4.6661,-4.6642,-4.6605,-4.6559,-4.6541,-4.6494,-4.645,-4.6415,-4.6394,-4.6359,-4.6346,-4.6328,-4.6345,-4.6351,-4.6357,-4.6357,-4.6344,-4.6349,-4.6291,-4.6291,-4.6291,0,0,-4.6869,-4.6823,-4.6813,-4.6756,-4.672,-4.6695,-4.6647,-4.6624,-4.6604,-4.6537,-4.6509,-4.6473,-4.6418,-4.6398,-4.6387,-4.6369,-4.637,-4.636,-4.6365,-4.6362,-4.6347,-4.6352,-4.6357,-4.6292,-4.6292,-4.6292,0,0,-4.6913,-4.6878,-4.6868,-4.6833,-4.678,-4.6738,-4.6736,-4.6672,-4.6645,-4.6617,-4.6565,-4.6539,-4.6483,-4.6445,-4.6419,-4.6447,-4.6408,-4.6437,-4.6471,-4.6459,-4.6463,-4.6467,-4.6473,-4.6477,-4.6438,-4.6438,-4.6438,0,-4.6959,-4.6922,-4.6867,-4.6847,-4.6821,-4.6761,-4.6749,-4.6717,-4.6654,-4.6637,-4.6619,-4.6545,-4.6504,-4.6472,-4.6479,-4.6461,-4.6453,-4.6444,-4.6467,-4.6471,-4.6473,-4.6478,-4.6482,-4.6441,-4.6441,-4.6441,-4.644,0,-4.6979,-4.6954,-4.6952,-4.6894,-4.6868,-4.6852,-4.6792,-4.6773,-4.6737,-4.6697,-4.6666,-4.6615,-4.6567,-4.6557,-4.6522,-4.6518,-4.6509,-4.648,-4.6448,-4.6483,-4.6487,-4.6489,-4.6447,-4.6445,-4.6444,-4.6443,0,0,-4.7069,-4.698,-4.698,-4.6951,-4.6887,-4.6865,-4.6845,-4.6799,-4.6782,-4.674,-4.6719,-4.6671,-4.6643,-4.6613,-4.6573,-4.6563,-4.6583,-4.6534,-4.6532,-4.6542,-4.6572,-4.6593,-4.6596,-4.6558,-4.6558,-4.6558,-4.6575,0,-4.7101,-4.7063,-4.7012,-4.699,-4.6964,-4.6905,-4.6886,-4.6843,-4.6804,-4.6774,-4.673,-4.6696,-4.6664,-4.6645,-4.6632,-4.6584,-4.6588,-4.6582,-4.6533,-4.6532,-4.6547,-4.6599,-4.6621,-4.664,-4.6577,-4.6577,-4.6577,0,-4.7134,-4.7096,-4.7072,-4.7007,-4.6994,-4.6979,-4.6931,-4.6904,-4.6853,-4.6824,-4.679,-4.6746,-4.6718,-4.669,-4.6648,-4.6645,-4.6621,-4.6594,-4.6594,-4.6586,-4.6556,-4.6589,-4.6646,-4.6648,-4.658,-4.658,-4.6579,0,-4.7199,-4.7141,-4.7118,-4.7096,-4.7021,-4.7011,-4.6978,-4.6926,-4.6901,-4.6858,-4.684,-4.6795,-4.6769,-4.6733,-4.6677,-4.6662,-4.6639,-4.6607,-4.6612,-4.6613,-4.6608,-4.6609,-4.6659,-4.6598,-4.6598,-4.6598,-4.6597,0,-4.7239,-4.7225,-4.7146,-4.7132,-4.7114,-4.7054,-4.7037,-4.6999,-4.6952,-4.6927,-4.6873,-4.685,-4.6778,-4.6745,-4.6701,-4.667,-4.666,-4.6633,-4.6621,-4.6637,-4.664,-4.662,-4.6616,-4.6598,-4.6598,-4.6598,-4.6598,0,-4.7307,-4.7254,-4.7225,-4.7156,-4.7138,-4.7127,-4.7067,-4.7049,-4.7006,-4.6975,-4.6964,-4.6896,-4.6854,-4.6795,-4.6735,-4.6705,-4.6679,-4.6662,-4.6698,-4.669,-4.6697,-4.6696,-4.6734,-4.6734,-4.6675,-4.6676,-4.6677,0,-4.7336,-4.7324,-4.7253,-4.7234,-4.7203,-4.7172,-4.7146,-4.7086,-4.706,-4.6999,-4.6988,-4.6942,-4.6903,-4.6838,-4.6782,-4.6734,-4.6713,-4.673,-4.6706,-4.6721,-4.671,-4.6711,-4.6707,-4.6735,-4.6736,-4.6737,-4.6738,0,-4.739,-4.7364,-4.733,-4.7286,-4.7256,-4.7218,-4.7177,-4.7163,-4.7093,-4.7067,-4.7025,-4.6994,-4.6932,-4.6886,-4.6831,-4.6794,-4.6753,-4.6746,-4.6743,-4.6759,-4.6779,-4.6765,-4.6711,-4.6745,-4.6744,-4.6743,-4.6743,-4.6743,-4.7437,-4.7423,-4.7371,-4.7333,-4.7296,-4.7259,-4.7238,-4.7193,-4.7157,-4.7104,-4.7069,-4.7028,-4.6972,-4.6894,-4.6859,-4.6823,-4.6806,-4.6804,-4.6803,-4.6803,-4.6807,-4.6786,-4.6813,-4.6813,-4.6812,-4.6812,-4.6812,0,-4.7486,-4.745,-4.7416,-4.7361,-4.7331,-4.7297,-4.7249,-4.7225,-4.719,-4.7143,-4.7105,-4.7054,-4.7009,-4.6948,-4.6898,-4.688,-4.6859,-4.6868,-4.6868,-4.6859,-4.6827,-4.6832,-4.6886,-4.6886,-4.6886,-4.6886,-4.6886,-4.6886,-4.7508,-4.7481,-4.7449,-4.7402,-4.7364,-4.7325,-4.73,-4.7263,-4.7225,-4.7172,-4.7134,-4.7096,-4.7042,-4.6987,-4.6942,-4.6925,-4.6907,-4.6922,-4.6899,-4.6869,-4.6862,-4.6856,-4.686,-4.6919,-4.6919,-4.6934,-4.6934,-4.6934]}]]